リニア彗星

C/2003 O1 ( LINEAR )

English version
Home page
Updated on January 21, 2006

---------------------------------------------------------------------

・ プロフィール

発見日 2003年7月19日
発見光度 18.4等
発見者 Lincoln Laboratory Near-Earth Asteroid Research project

・ 写真集

・ 軌道要素

The following orbital elements are taken from MPC 52164:

Epoch 2004 Mar. 16.0 TT = JDT 2453080.5
T 2004 Mar. 17.1878 TT                                  MPC
q   6.847419             (2000.0)            P               Q
z  -0.000227       Peri.   81.6718      +0.0421467      -0.9810778
 +/-0.000001       Node   347.6439      -0.7920751      +0.0824719
e   1.001552       Incl.  117.9816      +0.6089669      +0.1751706
From 300 observations 2002 July 27-2004 June 11, mean residual 0".6.

・ 星図

・ 光度変化

        m1 = 5.0 + 5 logΔ + 10.0 log r

---------------------------------------------------------------------

軌道要素はMPCのEphemerides and Orbital Elementsに掲載されたものです。
星図は StellaNavigator Ver.2.0 for Windows (アストロアーツ 編著 / アスキー出版局刊) で作成したものです。
光度グラフはComet for Windowsで作成したものです。

---------------------------------------------------------------------

Copyright(C) Seiichi Yoshida (comet@aerith.net). All rights reserved.